Regional Weather Roundup
Issued by NWS

Home | Current Version | Previous Version | Text Only | Print | Product List | Glossary Off
Versions: 1 2 3 4 5 6 7 8 9 10 11 12 13 14 15 16 17 18 19 20 21 22 23 24 25 26 27 28 29 30 31 32 33 34 35 36 37 38 39 40 41 42 43 44 45 46 47 48 49 50

000
ASUS43 KFSD 220510
RWRSD

WEATHER ROUNDUP FOR SOUTH DAKOTA
NATIONAL WEATHER SERVICE SIOUX FALLS SD
1200 AM CDT FRI MAY 22 2015

NOTE: "FAIR" INDICATES FEW OR NO CLOUDS BELOW 12,000 FEET WITH NO
SIGNIFICANT WEATHER AND/OR OBSTRUCTIONS TO VISIBILITY.


SDZ001>005-009-010-012>017-220600-
NORTHWEST AND NORTH CENTRAL SOUTH DAKOTA

CITY           SKY/WX    TMP DP  RH WIND       PRES   REMARKS
BUFFALO          N/A     49  31  49 SE12      30.07F
FAITH            N/A     52  32  46 SE9       30.14F
MOBRIDGE       PTCLDY    58  38  47 SE3       30.11S
$$

SDZ012>016-024>037-041>051-057-063-072>074-220600-
SOUTHWEST AND SOUTH CENTRAL SOUTH DAKOTA

CITY           SKY/WX    TMP DP  RH WIND       PRES   REMARKS
RAPID CTY ARPT PTCLDY    49  42  77 E5        30.13S
PIERRE         CLEAR     58  33  39 CALM      30.14S
CUSTER         CLOUDY    46  39  76 SE6       30.17S
ELLSWORTH AFB  CLEAR     49  43  80 SE7       30.13S
PHILIP         CLEAR     46  36  68 E7        30.14F
PINE RIDGE     CLOUDY    54  43  66 S8        30.15S
SPEARFISH      FAIR      46  36  66 SE5       30.13S
WINNER         FAIR      51  35  54 S8        30.17F
$$

SDZ004>011-016>023-039-040-220600-
NORTHEAST SOUTH DAKOTA

CITY           SKY/WX    TMP DP  RH WIND       PRES   REMARKS
ABERDEEN       CLEAR     52  40  63 NE5       30.14R
WATERTOWN      CLEAR     53  33  46 CALM      30.15R
BROOKINGS      CLEAR     52  41  66 CALM      30.17S
SISSETON         N/A     49  39  68 W5        30.13S
$$

SDZ017-020-022-023-036>040-048>070-220600-
SOUTHEAST SOUTH DAKOTA

CITY           SKY/WX    TMP DP  RH WIND       PRES   REMARKS
SIOUX FALLS    CLEAR     56  39  53 W5        30.15R
HURON          CLEAR     54  41  61 N3        30.14S
CHAMBERLAIN    CLEAR     49  37  64 SW3       30.16S
MITCHELL       CLEAR     57  39  51 W7        30.15S
YANKTON        CLEAR     57  37  47 SW8       30.15S
$$

ABBREVIATIONS USED IN REMARKS
   TC - TEMPERATURE IN CELSIUS
  WCI - WIND CHILL INDEX
   HX - HEAT INDEX
  VSB - VISIBILITY



USA.gov is the U.S. government's official web portal to all federal, state and local government web resources and services.